Torna al catalogo

SKYSAT C8

AttivoScienzaSSO
NORAD 42990·PAYLOAD·🇺🇸 United States

Lanciato Oct 31, 2017 da Vandenberg Space Force Base

Loading…

Prossimi Passaggi (prossime 24 ore)

TLE

AggiornatoSource: CelesTrak SupGP

Epoca: Sep 14, 2026, 16:50 UTC

1 42990C 17068D   26257.70155093  .00012956  00000+0  34159-3 0  2572
2 42990  97.4652  35.7327 0001524  92.1746  74.4227 15.38535072    13

Traccia SKYSAT C8 in tempo reale con AllMySat

Download on the App Store